EN

Hourly Weather Vocklabruck

Today, 18 January, Monday

Time Temperature Precipitation Wind Pressure Humidity
00:00 -4°C° 0.2 mm 1 mps 724 mmHg 96%
01:00 -4°C° 0 mm 1 mps 724 mmHg 97%
02:00 -3°C° 0.6 mm 1 mps 724 mmHg 97%
03:00 -3°C° 0.6 mm 1 mps 724 mmHg 97%
04:00 -2°C° 0.6 mm 1 mps 724 mmHg 97%
05:00 -3°C° 1.1 mm 2 mps 724 mmHg 97%
06:00 -3°C° 1.1 mm 2 mps 724 mmHg 97%
07:00 -2°C° 0 mm 2 mps 724 mmHg 97%
08:00 -2°C° 1 mm 3 mps 724 mmHg 97%
09:00 -2°C° 1 mm 4 mps 725 mmHg 97%
10:00 -2°C° 1 mm 5 mps 725 mmHg 97%
11:00 -1°C° 0.9 mm 5 mps 725 mmHg 97%
12:00 -1°C° 0.9 mm 5 mps 725 mmHg 98%
13:00 -1°C° 0.9 mm 5 mps 724 mmHg 98%
14:00 -1°C° 0.5 mm 5 mps 725 mmHg 97%
15:00 -2°C° 0.5 mm 5 mps 725 mmHg 97%
16:00 -2°C° 0.5 mm 5 mps 725 mmHg 96%
17:00 -2°C° 0.2 mm 4 mps 725 mmHg 95%
18:00 -3°C° 0.2 mm 4 mps 725 mmHg 93%
19:00 -2°C° 0.2 mm 3 mps 726 mmHg 92%
20:00 -2°C° 0 mm 3 mps 726 mmHg 91%
21:00 -4°C° 0 mm 3 mps 726 mmHg 91%
22:00 -4°C° 0 mm 3 mps 726 mmHg 90%
23:00 -4°C° 0 mm 3 mps 726 mmHg 89%

Tomorrow, 19 January, Tuesday

Time Temperature Precipitation Wind Pressure Humidity
00:00 -4°C° 0 mm 3 mps 726 mmHg 89%
01:00 -5°C° 0 mm 3 mps 726 mmHg 88%
02:00 -4°C° 0 mm 2 mps 725 mmHg 87%
03:00 -5°C° 0 mm 2 mps 725 mmHg 86%
04:00 -5°C° 0 mm 2 mps 724 mmHg 85%
05:00 -5°C° 0 mm 2 mps 724 mmHg 84%
06:00 -6°C° 0 mm 2 mps 724 mmHg 83%
07:00 -4°C° 0 mm 1 mps 723 mmHg 82%
08:00 -3°C° 0 mm 1 mps 723 mmHg 82%
09:00 -1°C° 0 mm 1 mps 723 mmHg 82%
10:00 0°C° 0 mm 1 mps 723 mmHg 82%
11:00 +1°C° 0 mm 1 mps 722 mmHg 85%
12:00 +1°C° 0 mm 1 mps 721 mmHg 89%
13:00 +2°C° 0 mm 1 mps 720 mmHg 92%
14:00 +2°C° 0 mm 1 mps 720 mmHg 91%
15:00 +2°C° 0 mm 1 mps 720 mmHg 91%
16:00 +2°C° 0 mm 1 mps 719 mmHg 91%
17:00 +1°C° 0.9 mm 2 mps 720 mmHg 91%
18:00 +1°C° 0.9 mm 3 mps 720 mmHg 92%
19:00 +1°C° 0.9 mm 3 mps 720 mmHg 93%
20:00 +1°C° 1 mm 3 mps 720 mmHg 92%
21:00 +1°C° 1 mm 3 mps 720 mmHg 92%
22:00 +1°C° 1 mm 3 mps 720 mmHg 91%
23:00 +1°C° 0.1 mm 3 mps 720 mmHg 88%

Day after tomorrow, 20 January, Wednesday

Time Temperature Precipitation Wind Pressure Humidity
00:00 +2°C° 0.1 mm 2 mps 720 mmHg 84%
01:00 +1°C° 0.1 mm 2 mps 720 mmHg 81%
02:00 +1°C° 0 mm 2 mps 719 mmHg 79%
03:00 -1°C° 0 mm 2 mps 719 mmHg 77%
04:00 0°C° 0 mm 1 mps 719 mmHg 75%
05:00 -2°C° 0 mm 2 mps 719 mmHg 75%
06:00 -2°C° 0 mm 2 mps 719 mmHg 75%
07:00 -2°C° 0 mm 2 mps 719 mmHg 75%
08:00 -1°C° 0 mm 2 mps 718 mmHg 77%
09:00 +2°C° 0 mm 1 mps 718 mmHg 80%
10:00 +3°C° 0 mm 1 mps 718 mmHg 82%
11:00 +3°C° 0 mm 1 mps 718 mmHg 88%
12:00 +4°C° 0 mm 1 mps 717 mmHg 93%
13:00 +4°C° 0 mm 1 mps 717 mmHg 98%
14:00 +4°C° 0 mm 1 mps 716 mmHg 94%
15:00 +4°C° 0 mm 1 mps 716 mmHg 90%
16:00 +4°C° 0 mm 1 mps 715 mmHg 86%
17:00 +2°C° 0 mm 2 mps 715 mmHg 84%
18:00 -1°C° 0 mm 2 mps 715 mmHg 83%
19:00 -2°C° 0 mm 2 mps 716 mmHg 81%
20:00 -2°C° 0 mm 2 mps 715 mmHg 81%
21:00 -3°C° 0 mm 2 mps 715 mmHg 81%
22:00 -3°C° 0 mm 2 mps 714 mmHg 80%
23:00 -4°C° 0 mm 2 mps 714 mmHg 81%

21 January, Thursday

Time Temperature Precipitation Wind Pressure Humidity
00:00 -4°C° 0 mm 2 mps 714 mmHg 82%
01:00 -4°C° 0 mm 2 mps 713 mmHg 82%
02:00 -2°C° 0 mm 1 mps 713 mmHg 83%
03:00 -3°C° 0 mm 1 mps 713 mmHg 84%
04:00 -3°C° 0 mm 1 mps 712 mmHg 84%
05:00 -3°C° 0 mm 1 mps 712 mmHg 85%
06:00 -3°C° 0 mm 1 mps 712 mmHg 85%
07:00 -3°C° 0 mm 1 mps 712 mmHg 86%
08:00 -2°C° 0 mm 1 mps 712 mmHg 86%
09:00 0°C° 0 mm 1 mps 712 mmHg 86%
10:00 +1°C° 0 mm 1 mps 713 mmHg 86%
11:00 +2°C° 0 mm 1 mps 712 mmHg 90%
12:00 +3°C° 0 mm 1 mps 712 mmHg 93%
13:00 +3°C° 0 mm 1 mps 712 mmHg 97%
14:00 +3°C° 0 mm 1 mps 712 mmHg 96%
15:00 +3°C° 0 mm 1 mps 712 mmHg 95%
16:00 +3°C° 0 mm 1 mps 711 mmHg 94%
17:00 +2°C° 0 mm 1 mps 711 mmHg 92%
18:00 +1°C° 0 mm 1 mps 711 mmHg 91%
19:00 +1°C° 0 mm 1 mps 711 mmHg 89%
20:00 +1°C° 0 mm 1 mps 711 mmHg 89%
21:00 +1°C° 0 mm 1 mps 710 mmHg 89%
22:00 0°C° 0 mm 1 mps 710 mmHg 88%
23:00 0°C° 0 mm 1 mps 709 mmHg 88%

22 January, Friday

Time Temperature Precipitation Wind Pressure Humidity
00:00 +1°C° 0 mm 1 mps 708 mmHg 88%
01:00 +1°C° 0 mm 1 mps 708 mmHg 88%
02:00 +1°C° 0 mm 1 mps 707 mmHg 88%
03:00 +1°C° 0 mm 1 mps 707 mmHg 88%
04:00 +1°C° 0 mm 1 mps 706 mmHg 88%
05:00 +1°C° 0 mm 1 mps 706 mmHg 89%
06:00 +1°C° 0 mm 1 mps 706 mmHg 90%
07:00 +1°C° 0 mm 1 mps 706 mmHg 91%
08:00 +2°C° 0 mm 1 mps 707 mmHg 93%
09:00 +2°C° 0 mm 1 mps 707 mmHg 95%
10:00 +2°C° 0 mm 0 mps 707 mmHg 97%
11:00 +2°C° 0.7 mm 0 mps 707 mmHg 98%
12:00 +3°C° 0.7 mm 1 mps 707 mmHg 99%
13:00 +3°C° 0.7 mm 1 mps 707 mmHg 99%
14:00 +3°C° 0.9 mm 1 mps 707 mmHg 99%
15:00 +2°C° 0.9 mm 2 mps 707 mmHg 99%
16:00 +1°C° 0.9 mm 3 mps 708 mmHg 99%
17:00 +1°C° 0.5 mm 3 mps 709 mmHg 98%
18:00 +1°C° 0.5 mm 3 mps 709 mmHg 97%
19:00 0°C° 0.5 mm 3 mps 710 mmHg 97%
20:00 0°C° 0.2 mm 3 mps 711 mmHg 95%
21:00 +1°C° 0.2 mm 2 mps 711 mmHg 94%
22:00 +1°C° 0.2 mm 2 mps 711 mmHg 93%
23:00 +1°C° 0.1 mm 2 mps 712 mmHg 92%

23 January, Saturday

Time Temperature Precipitation Wind Pressure Humidity
00:00 +1°C° 0.1 mm 2 mps 712 mmHg 91%
01:00 -1°C° 0.1 mm 2 mps 712 mmHg 91%
02:00 -1°C° 0.1 mm 2 mps 712 mmHg 92%
03:00 -1°C° 0.1 mm 2 mps 712 mmHg 93%
04:00 -1°C° 0.1 mm 2 mps 712 mmHg 95%
05:00 -1°C° 0.1 mm 2 mps 712 mmHg 94%
06:00 -1°C° 0.1 mm 2 mps 712 mmHg 93%
07:00 -2°C° 0.1 mm 2 mps 712 mmHg 92%
08:00 -1°C° 0 mm 2 mps 712 mmHg 91%
09:00 +1°C° 0 mm 1 mps 712 mmHg 90%
10:00 +2°C° 0 mm 1 mps 712 mmHg 90%
11:00 +2°C° 0 mm 1 mps 711 mmHg 92%
12:00 +3°C° 0 mm 1 mps 711 mmHg 95%
13:00 +3°C° 0 mm 1 mps 710 mmHg 97%
14:00 +2°C° 0 mm 2 mps 710 mmHg 96%
15:00 +2°C° 0 mm 2 mps 709 mmHg 95%
16:00 0°C° 0 mm 3 mps 709 mmHg 94%
17:00 +1°C° 0 mm 2 mps 709 mmHg 93%
18:00 -1°C° 0 mm 2 mps 708 mmHg 92%
19:00 -2°C° 0 mm 2 mps 708 mmHg 90%
20:00 -2°C° 0 mm 2 mps 708 mmHg 91%
21:00 -2°C° 0 mm 2 mps 708 mmHg 91%
22:00 0°C° 0 mm 1 mps 708 mmHg 91%
23:00 0°C° 0 mm 1 mps 708 mmHg 90%
Show more

We Need Your Consent

Meteoprog and our Service Providers may store and access personal data such as cookies, device identifiers or other similar technologies on your device and process such data to personalise content and ads, as well as provide social media features and to analyse the traffic.

  • Store and/or access information on your device

    Cookies, device identifiers or other information can be stored or accessed on your device for the purposes indicated above.

  • Personalised ads and content, ad and content measurement, audience insights, and products development

    Ads and content can be personalised based on a profile. More data can be added to better personalise ads and content. Ad and content performance can be measured. Insights about the audience who saw the ads and content can be derived. Such data can be used to develop or improve user’s experience, systems and software.

By clicking ‘I Agree’ you will allow the use of indicated cookies, device identifiers, web beacons or other similar technologies. Your settings can be changed in the browser on your device.

For certain purposes, legitimate interests may be relied on, rather than consent. You can read more about this in our Privacy and Cookie Policy.